Location: Possagno
(45.8500°N, 11.8667°E)
Time: 16:37:13
(UTC+00:00)

STARLINK-2737 - Visible Passes

Search period start: 03 December 2021 00:00
Search period end: 13 December 2021 00:00
Orbit: 546 x 549 km, 53.1° (Epoch: 03 December)

Date Brightness Start Highest point End Pass type
(mag) Time Alt. Az. Time Alt. Az. Time Alt. Az.
03 Dec 4.8 17:27:39 10° WNW 17:31:19 29° N 17:31:40 29° N visible
04 Dec 4.8 17:21:29 10° WNW 17:25:08 29° N 17:25:37 28° NNE visible
05 Dec 4.7 17:15:17 10° WNW 17:18:56 30° N 17:19:34 28° NNE visible
05 Dec 6.7 18:55:00 10° NW 18:55:10 11° NW 18:55:10 11° NW visible
06 Dec 4.6 17:09:02 10° WNW 17:12:43 31° N 17:13:32 28° NNE visible
06 Dec 6.6 18:48:39 10° NW 18:49:08 13° NW 18:49:08 13° NW visible
07 Dec 4.6 17:02:45 10° NW 17:06:30 32° N 17:07:32 28° NE visible
07 Dec 6.4 18:42:17 10° WNW 18:43:08 16° WNW 18:43:08 16° WNW visible
08 Dec 4.4 16:56:25 10° NW 17:00:14 35° NNE 17:01:34 28° NE visible
08 Dec 6.1 18:35:56 10° WNW 18:37:10 19° WNW 18:37:10 19° WNW visible
09 Dec 4.3 16:50:03 10° NW 16:53:57 38° NNE 16:55:40 26° ENE visible
09 Dec 5.8 18:29:34 10° WNW 18:31:16 24° WNW 18:31:16 24° WNW visible
10 Dec 4.1 16:43:39 10° NW 16:47:37 43° NNE 16:49:51 22° E visible
10 Dec 5.4 18:23:12 10° WNW 18:25:29 29° W 18:25:29 29° W visible
11 Dec 3.9 16:37:14 10° NW 16:41:16 50° NNE 16:44:11 17° E visible
11 Dec 5.2 18:16:52 10° WNW 18:19:49 34° WSW 18:19:49 34° WSW visible
12 Dec 3.7 16:30:47 10° NW 16:34:53 59° NNE 16:38:42 12° ESE visible
12 Dec 5.2 18:10:34 10° WNW 18:14:13 30° SW 18:14:21 30° SW visible
